Weather History for KSZL - May, 2013

Change the Weather History Date:

Tuesday, May 21, 2013

  Actual Average Record
Temperature  
Mean Temperature 66 °F -  
Max Temperature 72 °F 74 °F 86 °F (2014)
Min Temperature 60 °F 54 °F 44 °F (2002)
Growing Degree Days 16 (Base 50)    
Moisture  
Dew Point 61 °F    
Average Humidity 89    
Maximum Humidity 100    
Minimum Humidity 69    
Precipitation  
Precipitation 0.00 in - - ()
Sea Level Pressure  
Sea Level Pressure 29.74 in    
Wind  
Wind Speed 9 mph (SW)    
Max Wind Speed 15 mph    
Max Gust Speed 24 mph    
Visibility 10 miles    
Events Rain    
Averages and records for this station are not official NWS values.
T = Trace of Precipitation, MM = Missing Value Source: NWS Daily Summary

Daily Weather History Graph

Daily Weather History Graph

Search for Another Location

Airport or City:

Trip Planner

Search our weather history database for the weather conditions in past years. The results will help you decide how hot, cold, wet, or windy it might be!

Date:

Astronomy

May. 21, 2013 Rise Set
Actual Time 5:57 AM CDT 8:24 PM CDT
Civil Twilight 5:26 AM CDT 8:55 PM CDT
Nautical Twilight 4:48 AM CDT 9:33 PM CDT
Astronomical Twilight 4:07 AM CDT 10:15 PM CDT
Moon 4:41 PM CDT (5/21) 3:22 AM CDT (5/21)
Length of Visible Light 15h 28m
Length of Day
14h 27m
Waxing Gibbous, 84% of the Moon is Illuminated
May 21
Waxing Gibbous
May 24
Full
May 31
Last Quarter
Jun 8
New
Jun 16
First Quarter

Hourly Weather History & Observations

Time (CDT) Temp. Dew Point Humidity Pressure Visibility Wind Dir Wind Speed Gust Speed Precip Events Conditions
12:58 AM 62.6 °F 62.6 °F 100% 29.70 in 10.0 mi SW 9.2 mph - N/A   Overcast
1:58 AM 62.2 °F 62.2 °F 100% 29.69 in 10.0 mi SSW 10.4 mph - N/A   Mostly Cloudy
2:58 AM 61.3 °F 61.3 °F 100% 29.70 in 10.0 mi SSW 9.2 mph - N/A   Scattered Clouds
3:58 AM 62.8 °F 62.8 °F 100% 29.73 in 10.0 mi SW 12.7 mph - N/A   Partly Cloudy
4:58 AM 61.7 °F 61.7 °F 100% 29.74 in 10.0 mi West 8.1 mph - N/A   Partly Cloudy
5:58 AM 60.1 °F 60.1 °F 100% 29.74 in 10.0 mi WSW 5.8 mph - N/A   Scattered Clouds
6:58 AM 60.4 °F 59.9 °F 98% 29.77 in 10.0 mi WSW 6.9 mph - N/A   Scattered Clouds
7:58 AM 61.7 °F 60.4 °F 96% 29.79 in 10.0 mi SSW 8.1 mph - N/A   Scattered Clouds
8:58 AM 64.9 °F 58.1 °F 78% 29.79 in 10.0 mi WSW 11.5 mph - N/A   Mostly Cloudy
9:58 AM 65.7 °F 59.7 °F 81% 29.78 in 10.0 mi West 9.2 mph - N/A   Scattered Clouds
10:58 AM 66.4 °F 59.0 °F 77% 29.79 in 10.0 mi WSW 8.1 mph - N/A   Scattered Clouds
11:58 AM 66.9 °F 59.2 °F 76% 29.79 in 10.0 mi SW 9.2 mph - N/A   Mostly Cloudy
12:58 PM 67.3 °F 59.7 °F 77% 29.76 in 10.0 mi WSW 6.9 mph - N/A   Mostly Cloudy
1:58 PM 68.4 °F 61.0 °F 77% 29.77 in 10.0 mi SSW 12.7 mph - N/A   Mostly Cloudy
2:58 PM 68.7 °F 60.8 °F 76% 29.78 in 10.0 mi SW 13.8 mph - N/A   Mostly Cloudy
3:58 PM 71.1 °F 60.4 °F 69% 29.75 in 10.0 mi WSW 12.7 mph 24.2 mph N/A   Scattered Clouds
4:58 PM 71.6 °F 60.8 °F 69% 29.73 in 10.0 mi WSW 15.0 mph - N/A   Partly Cloudy
5:58 PM 70.0 °F 60.8 °F 73% 29.72 in 10.0 mi SW 12.7 mph - N/A   Overcast
6:58 PM 67.5 °F 62.6 °F 84% 29.70 in 10.0 mi South 8.1 mph - N/A   Overcast
7:58 PM 65.3 °F 63.1 °F 93% 29.68 in 10.0 mi South 5.8 mph - N/A   Mostly Cloudy
8:58 PM 64.4 °F 62.8 °F 94% 29.70 in 10.0 mi SW 8.1 mph - N/A   Scattered Clouds
9:58 PM 60.6 °F 60.6 °F 100% 29.71 in 10.0 mi SW 3.5 mph - N/A   Clear
10:00 PM 60.8 °F 60.8 °F 100% 29.72 in 10.0 mi SW 3.5 mph - N/A Rain Light Rain
10:04 PM 60.8 °F 60.8 °F 100% 29.72 in 10.0 mi SSW 4.6 mph - N/A   Clear
10:58 PM 62.1 °F 61.9 °F 99% 29.74 in 10.0 mi SW 6.9 mph - N/A   Partly Cloudy
11:58 PM 60.6 °F 60.6 °F 100% 29.74 in 10.0 mi WSW 5.8 mph - N/A   Scattered Clouds